Syracuse, Nebraska
Current Conditions -  °F | °C
As of 4:15 AM on Saturday 25 Oct 2014 (Local Time) from KAFK Reporting Station
Clear Clear  
Wind Chill: 56°   Ceiling: Unl
Heat Index: 56°   Visibility: 10mi
Dew Point: 46°   Wind: 3mph
Humidity: 71%   Direction: 330°NNW
Pressure: 30.02"   Gusts: NA
Location:  40.66°N, 96.19°W
Report Text: KAFK 250915Z AUTO 33003KT 10SM CLR 13/08 A3002 RMK AO2 T01310080
Loading
Personal Weather Stations






























Interactive Weather Map
Tropical Storm Tracking
New forecast layout! Learn more

10-Day Weather Forecast

Advertisements
Track Severe Weather on mobile